Weather History for Laurinburg-Maxton, NC

Change the Weather History Date:

Tuesday, November 12, 2013

  Actual Average (KLBT) Record (KLBT)
Temperature  
Mean Temperature 49 °F 55 °F  
Max Temperature 66 °F 69 °F 81 °F (2014)
Min Temperature 32 °F 42 °F 29 °F (2011)
Degree Days  
Heating Degree Days 16 10  
Month to date heating degree days 106  
Since 1 July heating degree days 238  
Cooling Degree Days 0 0  
Month to date cooling degree days 10  
Year to date cooling degree days 1904  
Moisture  
Dew Point 33 °F    
Average Humidity 73    
Maximum Humidity 100    
Minimum Humidity 26    
Precipitation  
Precipitation 0.04 in 0.09 in 1.28 in (2002)
Month to date precipitation 1.07  
Year to date precipitation 38.83  
Sea Level Pressure  
Sea Level Pressure 30.20 in    
Wind  
Wind Speed 6 mph (North)    
Max Wind Speed 23 mph    
Max Gust Speed 34 mph    
Visibility 9 miles    
Events Rain , Snow    
T = Trace of Precipitation, MM = Missing Value Source: NWS Daily Summary

Daily Weather History Graph

Daily Weather History Graph

Search for Another Location

Airport:

Trip Planner

Search our weather history database for the weather conditions in past years. The results will help you decide how hot, cold, wet, or windy it might be!

Date:

Astronomy

Nov. 12, 2013 Rise Set
Actual Time 6:48 AM EST 5:14 PM EST
Civil Twilight 6:22 AM EST 5:40 PM EST
Nautical Twilight 5:51 AM EST 6:11 PM EST
Astronomical Twilight 5:21 AM EST 6:40 PM EST
Moon 2:17 PM EST (11/12) 1:48 AM EST (11/12)
Length of Visible Light 11h 18m
Length of Day
10h 25m
Waxing Gibbous, 76% of the Moon is Illuminated
Nov 12
Waxing Gibbous
Nov 17
Full
Nov 25
Last Quarter
Dec 2
New
Dec 9
First Quarter

Hourly Weather History & Observations

Time (EST) Temp. Windchill Dew Point Humidity Pressure Visibility Wind Dir Wind Speed Gust Speed Precip Events Conditions
12:52 AM 34.0 °F - 33.1 °F 96% 30.16 in 10.0 mi Calm Calm - N/A   Clear
1:52 AM 34.0 °F - 32.0 °F 92% 30.13 in 5.0 mi Calm Calm - N/A   Clear
2:52 AM 33.1 °F - 32.0 °F 96% 30.12 in 9.0 mi Calm Calm - N/A   Clear
3:52 AM 32.0 °F - 30.0 °F 92% 30.11 in 10.0 mi Calm Calm - N/A   Clear
4:52 AM 32.0 °F - 30.9 °F 96% 30.11 in 10.0 mi Calm Calm - N/A   Clear
5:52 AM 32.0 °F - 30.9 °F 96% 30.11 in 10.0 mi Calm Calm - N/A   Clear
6:52 AM 32.0 °F - 30.9 °F 96% 30.10 in 10.0 mi Calm Calm - N/A   Clear
7:52 AM 35.1 °F 32.2 °F 35.1 °F 100% 30.11 in 9.0 mi SSW 3.5 mph - N/A   Clear
8:52 AM 48.0 °F - 39.9 °F 74% 30.12 in 10.0 mi WNW 3.5 mph - N/A   Clear
9:52 AM 57.9 °F - 37.9 °F 47% 30.10 in 10.0 mi West 6.9 mph - N/A   Clear
10:52 AM 59.0 °F - 37.0 °F 44% 30.10 in 10.0 mi WNW 6.9 mph - N/A   Mostly Cloudy
11:52 AM 63.0 °F - 36.0 °F 37% 30.08 in 10.0 mi NNW 9.2 mph - N/A   Overcast
12:52 PM 66.9 °F - 34.0 °F 30% 30.06 in 10.0 mi North 11.5 mph - N/A   Mostly Cloudy
1:52 PM 66.0 °F - 30.0 °F 26% 30.06 in 10.0 mi NNE 16.1 mph 21.9 mph N/A   Overcast
2:52 PM 63.0 °F - 30.9 °F 30% 30.07 in 10.0 mi NNE 13.8 mph - N/A   Mostly Cloudy
3:52 PM 61.0 °F - 34.0 °F 36% 30.10 in 10.0 mi NNE 18.4 mph - N/A   Overcast
4:52 PM 57.0 °F - 34.0 °F 42% 30.12 in 10.0 mi NE 23.0 mph 32.2 mph N/A   Overcast
5:52 PM 48.0 °F - 28.9 °F 48% 30.20 in 10.0 mi NNE 15.0 mph 29.9 mph 0.00 in Rain Light Rain
6:52 PM 42.1 °F 33.3 °F 30.0 °F 62% 30.29 in 10.0 mi NNE 19.6 mph 34.5 mph 0.00 in   Overcast
7:52 PM 37.9 °F 29.2 °F 32.0 °F 79% 30.34 in 10.0 mi NNE 15.0 mph - 0.00 in   Overcast
8:52 PM 34.0 °F 25.0 °F 32.0 °F 92% 30.38 in 4.0 mi NNE 12.7 mph - 0.02 in Snow Light Snow
9:02 PM 34.0 °F 23.4 °F 32.0 °F 92% 30.38 in 4.0 mi NNE 17.3 mph 24.2 mph 0.01 in Snow Light Snow
9:18 PM 33.1 °F 24.4 °F 32.0 °F 96% 30.39 in 3.0 mi NNE 11.5 mph - 0.01 in Snow Light Snow
9:39 PM 33.1 °F 25.5 °F 33.1 °F 100% 30.40 in 5.0 mi North 9.2 mph - 0.02 in Snow Light Snow
9:52 PM 34.0 °F 26.6 °F 33.1 °F 96% 30.40 in 9.0 mi NNE 9.2 mph - 0.02 in   Overcast
10:52 PM 35.1 °F 25.9 °F 30.0 °F 82% 30.41 in 10.0 mi NNE 13.8 mph 17.3 mph N/A   Overcast
11:52 PM 35.1 °F 28.6 °F 32.0 °F 89% 30.42 in 10.0 mi NNW 8.1 mph - N/A   Overcast